Date String (YYYY-MM-DD hh:mm:ss) UTC,Instrument flags,Ambient pressure (hPa),Sample flow (lpm),Bypass flow (lpm),Sample temperature (°C),Ambient temperature (°C),ASC tube jacket temperature (°C),LED temperature (°C),Box temperature (°C),Sample RH (%),Span deviation,Mass concentration (μg/m³),Mass concentration (μg/m³),Mass concentration (μg/m³)
DateTimeUTC,F1_M11,P_M11,Q1_M11,Q2_M11,T1_M11,T2_M11,T3_M11,T4_M11,T5_M11,U1_M11,ZSPAN_M11,X2_M11,X0_M11,X1_M11
2022-12-03 20:00:00,,0828.9,5.00,0.00,23.9,22.7,00.0,32.7,25.8,09.1,0000.0,0004.47,0011.03,0003.51
2022-12-03 20:01:00,,0829.0,5.00,0.00,23.9,22.7,00.0,32.7,25.8,09.2,0000.0,0004.53,0011.28,0003.54
2022-12-03 20:02:00,,0829.0,5.00,0.00,23.8,22.7,00.0,32.7,25.7,09.3,0000.0,0004.57,0012.20,0003.56
2022-12-03 20:03:00,,0828.9,5.00,0.00,23.9,22.7,00.0,32.7,25.7,09.6,0000.0,0004.59,0012.79,0003.59
2022-12-03 20:04:00,,0828.7,5.00,0.00,23.9,22.7,00.0,32.7,25.7,09.4,0000.0,0004.61,0012.86,0003.62
2022-12-03 20:05:00,,0829.0,5.00,0.00,23.9,22.7,00.0,32.7,25.7,09.3,0000.0,0004.62,0012.88,0003.64
2022-12-03 20:06:00,,0828.6,4.99,0.00,23.9,22.7,00.0,32.7,25.7,09.3,0000.0,0004.59,0012.08,0003.66
2022-12-03 20:07:00,,0828.4,5.00,0.00,23.9,22.8,00.0,32.7,25.7,09.5,0000.0,0004.61,0012.18,0003.70
2022-12-03 20:08:00,,0828.7,5.01,0.00,23.9,22.8,00.0,32.7,25.7,09.4,0000.0,0004.64,0012.62,0003.74
2022-12-03 20:09:00,,0828.5,5.01,0.00,23.9,22.8,00.0,32.7,25.7,09.4,0000.0,0004.68,0013.19,0003.76
2022-12-03 20:10:00,,0828.8,5.00,0.00,23.9,22.8,00.0,32.7,25.8,09.2,0000.0,0004.72,0014.72,0003.79
2022-12-03 20:11:00,,0828.5,5.00,0.00,23.9,22.8,00.0,32.8,25.9,09.1,0000.0,0004.76,0015.44,0003.81
2022-12-03 20:12:00,,0828.5,5.00,0.00,24.0,22.8,00.0,32.8,25.9,08.9,0000.0,0004.74,0014.73,0003.82
2022-12-03 20:13:00,,0828.4,5.00,0.00,23.9,22.7,00.0,32.8,25.9,08.9,0000.0,0004.71,0013.50,0003.83
2022-12-03 20:14:00,,0828.5,5.00,0.00,23.9,22.7,00.0,32.8,25.9,09.1,0000.0,0004.76,0012.99,0003.85
2022-12-03 20:15:00,,0828.4,5.00,0.00,23.9,22.7,00.0,32.8,25.8,09.2,0000.0,0004.80,0013.32,0003.86
2022-12-03 20:16:00,,0828.5,5.00,0.00,23.9,22.7,00.0,32.8,25.9,09.1,0000.0,0004.81,0013.37,0003.87
2022-12-03 20:17:00,,0828.5,5.00,0.00,24.0,22.8,00.0,32.8,25.9,09.3,0000.0,0004.84,0013.61,0003.89
2022-12-03 20:18:00,,0828.4,5.00,0.00,24.0,22.8,00.0,32.8,25.9,09.3,0000.0,0004.90,0014.12,0003.92
2022-12-03 20:19:00,,0828.4,5.00,0.00,24.0,22.7,00.0,32.8,25.9,09.2,0000.0,0004.93,0014.39,0003.94
2022-12-03 20:20:00,,0828.3,5.00,0.00,24.0,22.7,00.0,32.8,25.9,09.5,0000.0,0004.95,0014.21,0003.96
2022-12-03 20:21:00,,0828.3,4.99,0.00,24.0,22.7,00.0,32.8,25.9,09.5,0000.0,0005.03,0014.23,0004.01
2022-12-03 20:22:00,,0828.3,5.00,0.00,23.9,22.6,00.0,32.8,25.9,09.5,0000.0,0005.08,0013.32,0004.03
2022-12-03 20:23:00,,0828.4,5.00,0.00,23.9,22.6,00.0,32.8,25.8,09.4,0000.0,0005.12,0013.37,0004.07
2022-12-03 20:24:00,,0828.3,5.00,0.00,23.9,22.7,00.0,32.8,25.7,09.6,0000.0,0005.14,0014.23,0004.10
2022-12-03 20:25:00,,0828.3,5.00,0.00,23.9,22.7,00.0,32.8,25.8,09.7,0000.0,0005.17,0015.48,0004.13
2022-12-03 20:26:00,,0828.4,5.00,0.00,23.9,22.6,00.0,32.8,25.9,09.9,0000.0,0005.19,0015.51,0004.16
2022-12-03 20:27:00,,0828.3,4.99,0.00,23.9,22.6,00.0,32.8,25.8,09.8,0000.0,0005.24,0016.16,0004.20
2022-12-03 20:28:00,,0828.2,5.00,0.00,23.9,22.5,00.0,32.8,25.8,09.8,0000.0,0005.29,0017.18,0004.22
2022-12-03 20:29:00,,0828.2,5.00,0.00,23.9,22.5,00.0,32.8,25.7,09.7,0000.0,0005.25,0016.85,0004.24
2022-12-03 20:30:00,,0828.2,5.02,0.00,23.9,22.5,00.0,32.8,25.7,09.7,0000.0,0005.23,0015.96,0004.24
2022-12-03 20:31:00,,0828.4,4.99,0.00,23.9,22.6,00.0,32.8,25.7,09.9,0000.0,0005.25,0016.29,0004.25
2022-12-03 20:32:00,,0828.3,5.00,0.00,23.9,22.6,00.0,32.8,25.7,09.9,0000.0,0005.29,0015.80,0004.26
2022-12-03 20:33:00,,0828.1,5.00,0.00,23.9,22.6,00.0,32.8,25.7,10.1,0000.0,0005.30,0015.69,0004.28
2022-12-03 20:34:00,,0828.3,5.00,0.00,23.9,22.5,00.0,32.8,25.7,10.0,0000.0,0005.31,0016.39,0004.30
2022-12-03 20:35:00,,0828.3,5.00,0.00,23.9,22.5,00.0,32.8,25.7,09.9,0000.0,0005.38,0016.26,0004.31
2022-12-03 20:36:00,,0828.1,5.00,0.00,23.9,22.6,00.0,32.8,25.7,10.1,0000.0,0005.34,0015.12,0004.29
2022-12-03 20:37:00,,0828.2,5.00,0.00,23.9,22.6,00.0,32.8,25.7,10.6,0000.0,0005.23,0015.07,0004.19
2022-12-03 20:38:00,,0828.2,5.00,0.00,23.9,22.7,00.0,32.8,25.7,10.4,0000.0,0005.18,0014.19,0004.16
2022-12-03 20:39:00,,0828.1,5.00,0.00,23.9,22.7,00.0,32.8,25.7,10.5,0000.0,0005.15,0013.25,0004.11
2022-12-03 20:40:00,,0828.0,5.00,0.00,23.9,22.7,00.0,32.8,25.8,10.4,0000.0,0005.10,0012.42,0004.06
2022-12-03 20:41:00,,0828.0,5.00,0.00,23.9,22.7,00.0,32.8,25.8,10.7,0000.0,0005.04,0012.40,0003.99
2022-12-03 20:42:00,,0828.0,5.00,0.00,23.9,22.5,00.0,32.8,25.7,10.7,0000.0,0004.94,0012.13,0003.88
2022-12-03 20:43:00,,0828.1,5.00,0.00,23.9,22.4,00.0,32.8,25.7,10.3,0000.0,0004.85,0011.49,0003.83
2022-12-03 20:44:00,,0828.2,4.99,0.00,23.8,22.4,00.0,32.8,25.7,10.6,0000.0,0004.80,0011.78,0003.76
2022-12-03 20:45:00,,0828.1,5.00,0.00,23.8,22.3,00.0,32.8,25.6,10.5,0000.0,0004.78,0011.24,0003.71
2022-12-03 20:46:00,,0828.1,5.01,0.00,23.8,22.3,00.0,32.8,25.6,10.4,0000.0,0004.72,0010.85,0003.66
2022-12-03 20:47:00,,0827.9,5.00,0.00,23.8,22.3,00.0,32.8,25.6,10.3,0000.0,0004.69,0010.56,0003.63
2022-12-03 20:48:00,,0827.9,5.01,0.00,23.8,22.4,00.0,32.7,25.6,10.9,0000.0,0004.70,0010.20,0003.65
2022-12-03 20:49:00,,0827.9,5.00,0.00,23.8,22.5,00.0,32.7,25.7,11.5,0000.0,0004.55,0010.23,0003.54
2022-12-03 20:50:00,,0827.9,4.99,0.00,23.8,22.5,00.0,32.7,25.7,12.0,0000.0,0004.33,0010.71,0003.40
2022-12-03 20:51:00,,0827.8,5.00,0.00,23.8,22.6,00.0,32.7,25.7,11.4,0000.0,0004.19,0011.27,0003.30
2022-12-03 20:52:00,,0827.9,5.01,0.00,23.8,22.6,00.0,32.7,25.7,11.6,0000.0,0004.08,0011.20,0003.24
2022-12-03 20:53:00,,0827.8,5.01,0.00,23.9,22.6,00.0,32.7,25.7,11.3,0000.0,0004.03,0011.51,0003.23
2022-12-03 20:54:00,,0828.0,5.01,0.00,23.9,22.6,00.0,32.7,25.8,11.0,0000.0,0004.00,0012.41,0003.21
2022-12-03 20:55:00,,0827.9,4.99,0.00,23.9,22.6,00.0,32.7,25.7,11.0,0000.0,0004.02,0012.54,0003.22
2022-12-03 20:56:00,,0827.9,4.99,0.00,23.9,22.7,00.0,32.7,25.7,12.2,0000.0,0003.91,0012.27,0003.18
2022-12-03 20:57:00,,0827.8,4.99,0.00,23.9,22.7,00.0,32.7,25.7,12.6,0000.0,0003.64,0011.58,0002.93
2022-12-03 20:58:00,,0827.8,5.01,0.00,23.9,22.7,00.0,32.7,25.7,12.8,0000.0,0003.39,0011.17,0002.61
2022-12-03 20:59:00,,0827.8,5.01,0.00,23.9,22.7,00.0,32.7,25.8,12.4,0000.0,0003.22,0010.92,0002.33
